Home > Weather > St. Augustine > Past weeks

Flag for U.S.A. Weather for the Past 2 Weeks in St. Augustine, Florida, U.S.A.

Now
51 °F

Clear.


Feels Like: 47 °F
Forecast: 39 / 52 °F
Wind: 13 mph from West

Location: St. Augustine Airport

Current Time: Feb 9, 2016 at 8:32:35 PM

Latest Report: Feb 9, 2016 at 7:58 PM


Visibility: 10 mi

Pressure: 29.97 "Hg

Humidity: 48%

Dew point: 32 °F

Location of St. AugustineLocation

Historic Weather in St. Augustine — Graph

°F

St. Augustine Temperature Yesterday

Maximum temperature yesterday: 65 °F (at 2:58 PM)
Minimum temperature yesterday: 39 °F (at 6:58 AM)
Average temperature yesterday: 53 °F

High & Low Weather Summary for the Past Weeks

 TemperatureHumidityPressure
High79 °F (Feb 3, 12:02 PM)100% (Jan 28, 11:02 AM)30.33 "Hg (Jan 28, 11:02 AM)
Low39 °F (Feb 8, 6:58 AM)25% (Feb 9, 12:58 PM)29.77 "Hg (Jan 28, 3:58 PM)
Average58 °F78%30.07 "Hg
* Reported Jan 25 6:58 PM — Feb 9 6:58 PM, St. Augustine, Weather by CustomWeather, © 2016

Note: Actual official high and low records may vary slightly from our data, if they occured in-between our weather recording intervals... More about our weather records

Advertising

St. Augustine Weather History for the Previous 24 Hours

 ConditionsComfort  
Time TempWeatherWind HumidityBarometerVisibility
6:58 PM
Tue, Feb 9
53 °FClear.10 mph47%29.92 "Hg10 mi
5:58 PM55 °FSunny.13 mph44%29.90 "Hg10 mi
4:58 PM57 °FSunny.20 mph34%29.88 "Hg10 mi
3:58 PM58 °FPassing clouds.24 mph32%29.87 "Hg10 mi
2:58 PM58 °FSunny.22 mph28%29.87 "Hg10 mi
1:58 PM56 °FSunny.26 mph27%29.89 "Hg10 mi
12:58 PM55 °FSunny.16 mph25%29.92 "Hg10 mi
11:58 AM52 °FSunny.23 mph26%29.97 "Hg10 mi
10:58 AM50 °FSunny.22 mph28%29.99 "Hg10 mi
9:58 AM48 °FSunny.24 mph33%30.00 "Hg10 mi
8:58 AM46 °FSunny.15 mph40%30.01 "Hg10 mi
7:58 AM45 °FSunny.14 mph38%30.01 "Hg10 mi
6:58 AM44 °FClear.15 mph40%30.00 "Hg10 mi
5:58 AM45 °FClear.9 mph48%29.97 "Hg10 mi
4:58 AM47 °FOvercast.9 mph48%29.94 "Hg10 mi
3:58 AM49 °FOvercast.7 mph44%29.92 "Hg10 mi
2:58 AM50 °FOvercast.8 mph43%29.90 "Hg10 mi
1:58 AM51 °FOvercast.7 mph48%29.89 "Hg10 mi
12:58 AM52 °FMostly cloudy.6 mph53%29.87 "Hg10 mi
11:58 PM
Mon, Feb 8
52 °FOvercast.7 mph57%29.87 "Hg10 mi
10:58 PM56 °FMostly cloudy.17 mph62%29.84 "Hg10 mi
9:58 PM56 °FCool.10 mph77%29.82 "Hg10 mi
8:58 PM59 °FLight rain. Overcast.8 mph67%29.81 "Hg10 mi
Weather by CustomWeather, © 2016

See weather overviewHow to use our weather pages